Theta_e
324 330 342 344 344 343 343 343 342 342 341 341 341 341 340 338 336 336 337 338 338 338 337 333 329 327 326 328 330 333 335 336 336 335 335 335 335 330 326 326 328 331 332 331 332 333 333 332 330 329 329 330 330 332 333 333 333 333 333 333 334 333 332 332 332 332 333 332 330 327 325 324 324 323 317 306 300 300 300 299 299 299 299 299 298
327 338 343 344 343 343 343 343 342 342 341 341 341 341 340 339 337 336 337 338 338 338 337 334 332 328 326 329 332 335 336 336 336 335 335 336 336 332 329 329 330 331 332 332 333 333 334 333 331 330 329 330 330 331 332 332 332 333 333 333 333 333 332 332 332 332 332 331 329 326 324 323 321 317 308 300 300 300 299 299 299 299 299 298 298
334 340 343 343 343 344 343 343 342 342 341 341 342 341 340 339 338 337 338 339 339 339 338 335 332 329 328 330 334 336 337 337 337 336 336 336 336 333 331 332 333 332 332 333 333 334 334 334 333 331 330 330 330 330 331 331 332 333 333 333 333 332 331 331 332 332 331 330 328 326 324 321 315 309 304 300 300 300 299 299 299 299 299 298 299
336 339 340 343 343 343 343 343 343 342 342 342 341 341 341 339 338 337 338 339 339 339 338 335 332 330 330 331 334 337 338 338 337 337 337 336 336 335 334 334 334 333 333 334 334 334 334 334 333 332 330 329 329 330 331 331 331 333 333 332 332 332 331 332 332 332 331 330 328 325 322 319 313 308 303 301 300 300 299 299 299 299 299 300 300
330 334 339 343 344 343 343 343 343 342 342 342 340 340 340 339 338 338 338 339 339 339 338 337 334 332 332 333 334 337 339 338 338 337 337 337 336 335 335 335 334 333 334 334 334 333 333 333 332 331 330 329 329 330 332 332 332 333 333 332 331 330 330 331 331 331 331 330 329 327 322 319 318 312 305 303 301 300 300 300 300 300 300 301 300
325 326 330 337 342 343 343 343 342 343 342 341 340 340 340 339 338 338 338 339 339 340 339 337 336 334 334 334 335 336 338 338 338 337 337 337 336 336 336 336 334 333 334 335 334 333 332 332 331 330 328 328 329 331 331 331 332 332 332 331 330 330 329 330 330 330 330 329 329 329 326 324 323 316 308 306 303 300 301 300 301 301 301 301 301
334 330 329 331 339 342 343 343 342 342 341 339 340 341 341 339 338 338 339 340 340 340 339 338 337 335 334 334 334 335 336 337 336 337 338 337 336 336 336 335 334 333 334 335 335 333 331 331 330 329 328 328 330 331 331 330 332 332 332 331 330 331 330 330 330 330 330 330 329 330 329 328 328 322 316 313 307 303 302 301 302 302 301 302 302
338 338 338 337 337 340 342 342 342 341 339 339 340 341 341 340 338 338 339 339 340 340 339 339 338 337 335 334 334 333 334 335 335 336 338 337 335 335 336 335 334 334 334 335 335 333 331 330 329 329 329 329 330 331 331 331 331 331 331 331 331 331 331 331 331 330 330 330 330 330 330 329 329 328 325 322 317 310 304 302 302 302 302 302 302
336 337 339 340 339 339 340 340 340 339 339 338 338 341 342 340 339 338 339 340 340 340 339 339 338 338 337 335 335 333 333 334 334 335 337 336 336 336 336 336 335 335 335 335 335 334 332 331 330 329 330 330 330 331 331 331 331 331 331 331 331 331 331 331 331 331 330 330 330 330 330 330 329 328 328 326 324 317 309 304 303 303 303 303 304
339 338 338 339 339 340 339 341 341 340 340 338 338 341 342 341 339 339 339 340 341 341 340 339 339 338 337 336 336 333 333 334 333 334 335 336 336 336 336 336 335 335 335 335 335 333 332 331 330 330 330 331 331 331 331 331 331 331 331 332 331 332 331 331 331 330 330 330 330 329 328 328 327 327 326 326 325 321 315 308 304 303 304 304 305
341 340 339 339 338 340 341 342 343 342 342 341 341 342 342 341 340 339 340 341 341 341 340 339 339 339 338 337 336 334 332 332 332 333 335 336 336 336 336 336 336 336 335 335 334 333 332 331 330 330 330 331 331 331 331 331 331 331 332 331 331 331 331 330 330 329 329 330 329 327 325 324 325 325 325 325 325 324 319 311 304 303 304 303 304
340 340 340 341 340 341 342 343 343 342 342 342 342 342 342 341 340 339 340 341 341 341 340 340 339 339 338 337 336 335 332 331 331 331 334 336 336 336 335 335 336 336 335 334 333 332 332 331 331 330 330 330 331 332 331 331 331 331 330 330 329 329 328 328 327 327 328 328 328 326 323 321 321 322 323 324 325 325 322 314 305 304 304 303 303
337 341 341 341 341 341 342 343 343 342 342 343 342 342 341 341 340 340 340 341 342 341 341 340 339 339 337 337 337 336 334 331 330 331 333 334 334 335 335 335 335 335 334 333 332 332 332 331 331 330 330 331 331 331 331 330 330 330 329 329 328 327 326 325 325 325 325 325 325 323 319 316 314 315 318 320 322 323 321 315 307 304 304 303 302
330 340 342 341 341 341 342 342 342 342 342 343 342 342 341 341 341 340 340 342 341 341 341 340 339 338 337 337 337 336 335 332 331 332 333 334 334 335 335 334 334 334 334 333 332 332 332 332 331 330 330 331 331 331 330 330 329 329 329 328 327 325 323 322 320 320 319 319 319 317 313 310 308 310 312 316 319 321 319 315 309 305 303 303 302
320 334 341 342 341 341 342 342 342 341 342 343 342 342 342 341 341 341 341 342 341 341 341 340 339 338 338 337 337 337 335 333 332 333 333 334 334 335 334 333 333 334 334 334 333 332 332 331 331 330 330 330 331 331 330 329 329 329 328 327 324 322 320 317 315 314 314 313 312 310 307 306 305 306 307 309 315 318 317 314 310 306 303 302 302
313 324 336 342 342 341 342 342 342 342 342 342 342 342 342 342 341 341 342 342 341 341 340 340 339 338 338 337 337 337 336 333 333 334 334 334 335 335 334 333 333 334 334 333 333 332 332 332 331 330 330 330 331 330 330 329 329 328 327 324 323 321 318 314 311 311 310 309 308 306 304 303 303 302 303 306 310 314 314 312 309 306 304 303 302
313 315 324 335 341 342 342 341 342 342 342 342 342 342 342 341 342 341 342 342 341 340 341 340 339 338 338 337 337 337 335 334 333 333 334 334 335 336 335 333 333 334 334 333 333 332 332 332 331 330 330 330 331 330 329 329 328 326 324 323 322 320 316 312 309 308 306 304 304 303 303 302 302 302 301 302 306 308 310 310 308 307 305 304 303
315 315 315 323 334 340 342 342 342 341 341 340 340 341 341 341 342 342 342 342 340 340 341 340 340 339 338 337 336 336 335 333 332 332 333 334 335 335 335 334 334 334 334 333 333 332 332 332 331 330 330 330 330 329 329 328 325 323 323 323 321 318 314 310 306 304 303 302 302 302 302 301 302 302 301 301 302 304 307 308 307 306 306 305 304
316 317 315 317 326 336 340 342 343 342 341 340 340 340 341 341 342 342 342 341 340 340 341 341 340 339 337 335 335 335 335 333 332 332 333 334 334 334 334 334 335 335 334 333 333 332 332 332 331 330 330 330 329 329 329 326 323 322 322 322 318 314 310 306 303 302 302 301 301 301 301 301 301 301 301 301 301 301 304 306 307 306 306 306 305
318 319 318 318 321 328 334 338 341 342 342 341 341 341 341 341 341 342 342 342 341 341 341 341 340 338 336 335 334 334 334 332 331 331 333 334 334 334 334 334 335 335 334 333 333 333 332 332 331 330 330 330 330 329 328 325 323 322 320 318 314 310 306 303 301 301 301 301 301 301 301 301 301 302 301 301 301 300 303 305 306 307 307 306 305
320 321 321 320 320 323 328 333 338 341 342 342 342 342 341 341 340 341 342 342 341 340 341 341 340 338 336 334 333 333 333 332 331 331 332 333 334 333 334 335 335 335 334 333 333 333 332 331 330 330 330 330 330 329 327 325 323 322 319 315 311 307 303 302 301 301 301 301 301 301 301 301 301 301 301 301 300 300 301 304 306 307 307 306 305
320 322 322 322 323 324 327 333 339 341 342 342 342 341 341 340 340 341 341 342 341 340 341 341 339 338 337 335 335 334 333 333 331 330 332 333 333 334 335 336 335 334 334 333 333 332 331 330 330 330 331 330 329 328 326 324 323 321 318 314 310 305 302 301 301 301 301 301 301 301 301 301 301 301 301 300 300 299 300 301 304 306 307 306 305
319 321 323 323 323 324 327 334 340 342 342 342 341 341 341 340 340 340 341 341 340 341 341 340 339 338 337 337 336 336 336 335 332 330 331 332 334 335 335 336 336 334 333 333 333 331 330 330 330 331 331 330 328 326 325 324 323 320 317 312 308 303 301 300 300 301 301 301 301 301 301 301 300 300 300 300 299 299 299 299 301 303 305 306 305
317 319 323 324 324 327 329 335 340 342 342 342 341 341 340 340 339 339 341 341 341 341 341 340 339 339 338 338 337 337 337 336 333 331 331 332 333 334 335 336 336 334 333 333 332 332 330 330 330 330 330 329 327 326 325 323 322 319 314 309 305 302 300 300 300 300 300 300 301 301 301 300 300 300 299 299 299 299 299 298 299 300 301 302 301
318 318 323 324 326 329 333 336 339 341 342 342 341 341 340 339 339 339 340 341 342 341 340 340 339 339 339 338 337 338 337 335 332 331 331 332 332 334 335 336 336 334 333 332 332 332 331 330 330 330 329 328 326 325 324 322 320 316 311 306 302 300 300 300 300 300 300 300 300 300 300 300 300 299 299 299 299 299 298 298 298 298 298 299 298
320 321 323 325 327 331 335 337 339 341 342 341 341 341 339 339 338 338 340 341 341 341 340 340 339 339 339 338 338 337 336 335 333 332 331 331 332 334 336 336 335 334 333 332 332 331 330 330 330 330 328 327 325 324 323 321 317 312 308 304 301 300 300 299 300 300 299 300 299 299 299 299 299 299 299 299 298 299 299 298 298 298 298 298 299
321 323 325 327 328 333 337 338 339 340 341 341 341 340 339 339 338 338 339 340 341 340 340 340 340 339 339 338 338 337 336 335 334 332 329 329 332 335 336 336 335 333 332 332 332 331 330 330 329 329 327 326 325 323 322 319 315 310 307 304 301 300 300 299 299 299 299 299 299 299 299 299 298 298 298 298 298 299 299 298 297 298 298 298 298
320 323 327 328 329 333 337 338 339 340 340 341 340 340 339 338 338 338 339 339 340 339 339 339 340 339 339 338 337 338 337 335 333 330 328 330 333 335 335 335 334 333 331 331 331 330 329 329 328 328 326 325 324 323 321 318 315 310 306 303 301 300 299 299 299 299 299 299 299 298 298 298 298 298 298 298 298 299 299 297 297 298 298 298 298
319 322 328 329 330 335 337 338 339 339 340 341 340 339 339 338 339 339 339 339 339 339 339 338 339 340 338 337 337 337 336 333 332 330 330 333 334 334 334 334 334 332 331 330 330 329 328 328 328 327 326 325 324 323 321 318 315 310 306 303 300 299 299 299 299 298 299 298 298 298 298 298 298 298 298 298 299 299 298 298 297 298 298 298 298
317 321 329 331 332 335 337 338 340 340 340 340 340 340 339 338 339 339 339 339 339 339 338 338 339 339 338 337 338 337 335 334 333 332 332 334 335 334 335 335 334 332 330 329 329 328 327 327 328 327 326 325 324 322 320 318 313 309 305 302 300 299 299 298 298 298 298 298 298 298 298 298 298 298 298 298 299 298 298 297 297 298 298 298 298
317 320 329 333 333 336 338 339 340 340 340 340 340 340 339 339 339 339 339 339 339 339 338 338 338 338 337 336 337 337 336 335 334 333 333 334 334 335 335 335 333 332 329 328 328 327 326 327 327 327 326 325 323 322 319 316 312 307 303 300 299 299 298 298 298 298 298 298 298 298 298 298 298 298 298 298 298 298 297 297 297 297 297 297 297
317 319 329 335 335 336 339 339 340 340 340 340 340 340 340 339 339 339 339 339 339 339 339 338 338 338 337 336 337 337 336 335 334 333 334 334 334 335 335 334 333 331 329 328 327 327 327 327 327 327 326 325 323 321 318 315 310 306 302 300 299 299 298 298 298 298 298 298 298 298 298 298 298 298 298 297 298 297 297 297 297 297 297 297 297
317 318 328 336 336 337 339 339 340 340 340 340 340 340 340 340 339 340 340 339 339 339 338 338 338 337 337 336 336 337 336 334 334 333 334 335 335 336 335 334 333 332 330 328 327 327 327 327 327 327 326 325 323 320 316 313 308 304 301 300 299 299 299 299 299 299 299 299 299 299 298 298 298 298 297 297 297 297 297 296 297 297 297 297 297
317 319 328 336 338 337 339 339 339 340 340 340 340 339 340 339 339 340 340 339 339 339 339 338 338 338 337 336 336 337 335 334 333 334 336 336 335 334 334 334 333 333 331 328 327 327 327 327 327 327 326 324 322 319 315 311 307 303 301 300 300 299 300 300 300 300 300 299 299 299 299 299 298 297 297 298 299 298 296 296 296 297 297 297 297
318 320 328 337 338 338 339 339 339 340 340 340 339 339 340 339 339 340 340 340 340 339 339 339 338 338 338 337 337 336 335 334 333 334 336 336 334 332 332 332 333 333 331 328 326 327 327 327 327 326 325 323 320 317 315 311 306 303 301 300 300 300 301 301 301 301 301 300 300 301 300 299 298 297 298 299 299 298 296 296 296 296 296 296 296
321 322 329 337 339 338 340 339 339 340 340 340 340 340 340 339 339 339 340 340 339 339 339 338 338 338 338 338 338 337 336 335 334 334 335 336 335 333 332 332 332 332 330 327 327 328 327 327 326 325 324 322 319 318 317 314 309 304 302 302 301 301 302 302 302 302 302 302 302 301 300 299 298 298 298 298 298 296 296 296 296 296 296 296 296
325 324 328 336 339 339 339 339 340 340 340 340 340 339 339 339 339 339 340 340 339 339 339 338 337 337 337 337 338 337 337 336 335 335 335 335 335 333 333 333 332 331 329 327 327 327 327 326 326 325 323 321 320 320 320 318 313 308 305 303 302 302 302 302 303 303 303 303 302 301 299 299 299 298 298 298 296 295 295 295 295 295 296 296 296
328 326 329 336 339 339 339 339 339 340 340 340 340 339 339 338 339 339 339 339 339 339 338 338 337 337 337 338 337 338 338 337 336 336 336 334 334 333 334 333 332 330 329 327 326 327 326 325 325 324 323 322 321 321 320 318 316 312 308 305 303 303 303 303 303 303 302 302 302 300 299 299 299 299 298 297 296 295 295 295 295 295 295 295 296
330 328 330 336 339 339 339 339 339 340 340 339 339 339 339 338 339 339 339 339 339 338 337 337 337 337 337 337 337 336 337 337 337 337 336 334 333 333 333 332 330 329 328 326 326 327 325 324 324 323 322 321 321 321 320 318 317 315 312 308 305 304 303 303 303 303 302 301 301 300 299 299 299 298 298 297 295 294 294 294 294 294 295 295 296
332 330 331 337 339 339 339 339 339 339 339 339 339 339 339 339 339 338 338 338 338 337 337 336 336 336 336 336 336 336 337 338 338 337 336 334 334 333 332 330 329 329 328 326 326 326 325 323 323 322 322 321 322 321 320 319 317 316 314 311 307 305 304 303 303 303 302 301 300 299 299 298 298 298 298 296 294 294 294 294 294 294 294 295 295
334 332 334 338 339 339 339 339 339 339 339 339 338 338 338 338 338 338 337 337 337 337 337 337 336 335 336 336 335 336 337 338 337 336 334 333 333 333 332 330 329 328 327 326 325 325 324 323 322 322 322 322 322 321 320 319 317 316 315 312 309 307 306 305 304 304 304 302 301 300 299 299 298 298 298 297 295 294 293 293 294 294 294 295 295
335 334 335 337 339 339 339 338 338 339 338 338 337 338 338 338 337 337 337 337 337 337 337 337 336 335 335 335 335 335 336 337 336 335 333 333 333 333 332 331 329 328 327 326 326 325 324 323 323 323 322 323 323 321 320 319 317 316 315 313 310 309 308 306 305 305 304 304 303 302 301 300 299 299 299 299 297 296 295 295 295 295 295 295 295
334 335 335 336 338 338 338 338 338 338 337 337 337 337 337 337 337 337 337 337 337 337 337 337 337 336 336 336 336 335 334 335 336 335 334 333 333 332 331 330 329 328 327 327 326 325 325 324 324 323 323 323 323 322 320 319 318 317 315 313 311 309 308 307 306 306 305 305 304 303 303 301 300 300 300 300 300 299 298 298 299 298 297 295 294
332 333 334 335 336 337 337 338 337 336 335 336 337 337 336 336 337 337 337 337 337 337 337 337 337 337 336 336 334 332 333 334 335 335 333 332 332 332 330 329 328 327 327 327 326 324 325 325 325 324 324 324 323 322 321 320 319 317 315 312 310 309 308 307 306 306 306 306 305 305 304 302 301 300 301 301 302 302 301 301 301 300 298 297 295
332 333 333 333 335 336 337 336 335 334 333 333 335 336 336 336 336 336 336 336 336 337 337 337 337 336 335 333 333 333 334 334 334 334 333 332 331 330 328 327 327 327 327 326 325 324 325 325 325 325 325 324 323 322 322 321 320 318 315 313 310 308 307 307 307 307 307 307 306 305 304 303 301 301 302 303 303 303 303 303 302 300 299 297 296
332 333 333 333 332 332 334 334 334 333 332 333 335 336 335 335 336 336 336 336 336 336 336 336 334 333 332 333 334 334 334 333 333 333 332 331 330 328 327 326 326 326 326 325 324 324 325 326 325 325 325 324 323 323 322 321 319 317 315 313 311 309 307 307 307 307 307 307 306 306 305 303 302 302 303 304 303 303 304 304 302 300 298 298 297
332 332 332 332 330 329 331 333 335 334 333 334 336 335 334 335 336 336 336 335 335 335 334 333 333 333 333 334 335 335 333 333 333 332 331 331 330 329 327 327 326 325 325 325 324 325 326 326 325 325 325 324 323 322 321 320 318 317 315 314 312 310 309 308 308 308 307 307 307 307 306 304 302 303 303 303 303 304 304 303 302 300 299 298 297
332 332 332 332 331 330 331 333 335 335 334 335 335 335 334 335 335 336 334 333 333 333 333 332 333 334 335 335 336 335 334 334 333 331 331 330 329 328 328 327 327 326 326 325 325 326 326 325 325 325 325 324 322 321 321 320 318 317 315 314 312 311 310 310 309 309 308 308 307 307 306 305 303 302 302 301 303 304 303 302 301 301 300 299 297
332 332 332 332 332 333 333 333 334 335 334 334 335 335 335 334 335 335 333 332 333 332 333 333 334 334 334 335 335 335 335 334 333 331 330 330 329 329 329 328 328 327 327 326 326 325 325 324 325 325 325 324 322 321 320 318 317 315 314 313 312 311 310 310 310 309 308 308 307 307 306 305 304 302 301 301 303 304 303 301 300 301 301 300 298
331 331 331 332 332 333 333 333 333 334 334 334 335 335 335 334 333 333 333 333 333 333 333 333 333 334 334 333 333 334 334 332 331 331 330 329 329 328 328 328 328 327 327 327 326 325 324 325 325 326 325 323 322 319 317 315 315 314 313 312 311 311 310 309 309 308 308 307 307 306 305 304 304 304 302 301 302 303 303 302 301 301 301 301 299
330 330 331 332 332 333 333 332 332 333 334 334 334 335 334 333 332 332 332 333 332 332 333 333 333 333 333 332 332 332 332 331 330 330 330 330 329 328 327 327 327 326 326 326 325 325 325 324 325 324 323 321 319 317 315 314 314 313 312 312 311 310 309 309 308 307 306 305 305 304 303 303 303 303 302 301 302 303 303 303 303 302 302 301 301
Wind_Speed
33 36 39 36 36 40 42 42 38 35 36 36 35 35 33 32 33 32 29 28 27 27 28 30 32 33 33 34 33 31 28 27 27 25 22 20 17 16 16 15 12 11 11 11 10 9 9 8 8 8 9 9 9 9 10 11 11 11 11 11 12 12 13 16 19 16 12 14 14 12 10 7 5 3 2 1 1 2 2 2 2 2 2 3 3
33 36 36 35 36 39 40 41 40 38 38 38 37 36 35 33 34 33 31 30 30 28 29 31 33 34 35 35 34 31 29 28 27 25 23 20 18 16 16 14 13 13 12 11 11 10 10 9 9 8 9 9 10 10 11 12 12 11 11 12 13 15 15 16 16 14 12 12 12 12 12 9 6 4 3 3 3 3 2 2 3 3 4 4 4
35 34 34 36 38 38 39 41 42 40 39 39 38 37 36 34 34 34 33 33 31 29 29 31 32 33 34 34 32 30 29 27 25 24 22 21 19 17 16 14 14 13 12 11 11 11 11 11 10 9 10 11 11 11 11 12 12 12 12 12 13 15 15 15 15 15 14 12 11 11 11 10 7 7 6 5 5 5 5 5 5 5 5 5 4
36 34 34 36 37 38 39 41 43 41 39 39 38 38 37 36 35 36 35 34 32 30 30 30 31 32 32 31 29 28 27 27 25 24 23 22 21 19 17 15 14 13 12 11 11 12 12 12 12 11 11 11 11 11 11 12 12 12 12 13 13 14 14 15 17 18 16 13 11 9 9 9 8 8 8 7 7 7 7 7 7 6 6 5 3
39 37 36 36 38 40 41 43 44 43 43 42 40 39 38 38 37 36 36 35 33 31 30 31 31 32 32 30 28 27 27 27 28 27 26 24 22 20 18 16 15 13 12 11 11 11 12 12 12 12 11 11 10 10 10 11 11 12 13 13 14 13 13 16 19 20 18 15 12 9 8 8 8 9 10 9 9 10 9 8 7 7 6 4 3
40 40 39 39 40 42 43 44 45 45 45 44 41 40 39 39 38 37 36 35 33 32 32 32 33 33 34 33 32 31 30 30 30 30 28 26 23 21 18 17 15 14 13 12 12 12 12 12 11 11 11 10 9 10 10 10 11 12 12 13 13 14 14 16 18 19 20 18 16 13 10 9 9 10 11 10 11 12 11 10 9 8 6 5 3
38 40 41 42 42 42 44 45 47 47 46 44 43 42 40 39 38 38 36 35 34 33 33 33 35 35 35 35 34 32 32 32 30 29 27 25 23 21 19 18 16 15 15 14 14 14 13 12 11 11 11 9 9 9 10 10 11 12 13 13 13 15 16 16 16 18 20 20 19 18 16 14 11 10 11 10 12 14 14 12 11 9 8 6 4
37 38 40 42 43 43 44 46 49 48 46 45 45 44 42 41 40 38 36 35 35 34 33 34 36 36 35 35 34 33 32 31 29 27 26 24 23 21 19 19 18 17 16 16 16 15 14 13 11 11 10 10 9 9 10 10 11 12 13 14 15 16 17 17 17 18 19 19 20 20 19 18 15 13 11 9 10 14 16 15 13 12 10 7 5
39 39 40 42 44 44 44 46 48 49 48 47 47 45 44 42 41 38 36 36 35 34 34 34 36 37 36 35 34 33 32 30 28 26 25 25 23 21 21 20 19 18 18 18 17 16 15 13 12 11 10 10 9 9 10 11 12 13 14 15 16 17 17 18 18 18 18 19 19 20 19 19 18 15 13 11 11 13 16 18 17 15 12 9 6
36 40 41 42 45 44 44 45 47 49 49 48 47 45 45 44 42 39 38 37 35 34 34 35 37 38 38 36 34 34 33 31 28 26 26 25 23 22 22 21 19 19 19 19 18 16 15 14 12 11 10 10 9 9 10 11 12 13 14 16 17 17 18 19 19 19 18 19 19 20 20 21 20 18 17 15 14 13 13 16 18 17 15 12 9
33 37 39 41 44 44 44 44 45 46 45 46 46 45 45 45 43 40 39 38 36 35 36 37 38 40 40 38 36 34 34 32 29 28 28 26 25 24 22 21 20 20 20 19 18 16 16 14 12 11 11 11 10 10 10 11 12 13 14 16 17 17 18 19 20 19 18 19 19 19 19 19 19 18 17 16 16 16 14 16 20 18 15 13 11
32 34 38 40 41 42 43 43 43 42 42 44 45 46 46 46 44 43 41 39 37 37 37 38 39 40 40 39 37 35 34 33 30 30 30 28 26 24 23 22 21 21 20 19 18 17 16 15 13 11 11 11 10 10 11 12 12 13 14 16 16 16 17 18 18 17 17 18 17 17 17 16 17 17 15 14 15 15 15 17 22 20 16 14 14
31 33 36 39 40 42 43 43 43 42 43 45 46 46 47 47 46 45 42 40 39 38 38 39 40 41 40 39 38 37 35 33 31 30 30 29 27 25 24 23 22 21 20 18 17 17 17 15 13 12 11 11 11 11 11 11 12 13 13 14 14 14 15 15 15 14 15 15 15 14 15 15 15 14 13 13 12 15 16 18 22 20 17 16 16
28 32 35 38 41 42 43 44 45 45 45 46 47 48 47 47 47 46 43 41 40 39 39 40 41 42 41 40 39 38 36 33 31 30 29 28 27 25 24 23 22 20 18 17 17 17 17 15 13 12 11 11 11 11 11 11 12 12 13 13 12 11 11 11 12 14 13 13 13 13 13 13 13 11 12 12 13 16 18 20 21 20 17 16 17
23 30 34 37 40 42 43 44 45 46 47 48 49 49 48 48 49 47 44 42 41 40 40 41 41 42 42 41 40 39 37 34 32 30 29 28 26 25 24 23 21 19 18 17 17 17 17 16 14 13 12 11 12 12 12 12 12 13 14 13 10 9 9 10 12 12 12 11 12 12 12 11 10 10 10 11 12 14 17 18 18 18 19 18 17
19 27 32 37 40 41 43 45 46 47 48 50 50 50 50 50 49 47 45 44 42 41 41 41 41 42 43 43 41 40 38 36 34 31 29 28 26 25 24 22 21 20 19 18 17 17 17 16 15 14 13 12 12 13 13 12 13 14 14 11 8 8 9 10 11 11 11 11 11 11 10 9 9 9 9 10 12 13 15 16 16 16 15 17 19
15 21 28 35 40 42 44 46 47 48 49 50 51 51 51 51 50 47 46 45 42 41 42 42 41 42 43 44 43 42 40 38 35 32 29 28 27 26 24 22 21 20 19 19 18 17 17 17 16 15 14 13 13 13 13 12 13 12 11 8 7 9 10 11 11 11 11 11 10 9 9 8 9 9 9 10 11 13 15 16 15 14 13 12 16
11 17 24 32 39 43 46 47 47 49 50 51 52 52 52 52 51 48 47 46 43 42 44 43 41 42 43 44 44 43 41 39 36 32 29 27 27 27 25 23 22 20 19 18 18 17 17 17 16 15 14 14 14 14 12 11 11 10 9 9 10 11 11 11 11 11 11 10 9 8 8 9 9 9 9 9 11 12 15 16 16 15 13 11 11
9 14 21 31 38 43 46 48 48 49 50 51 51 52 52 52 50 48 47 46 43 43 45 43 41 41 42 44 44 44 42 39 36 32 29 27 27 26 25 24 22 21 20 18 18 18 17 16 16 16 14 14 14 14 12 10 10 9 9 11 12 12 11 11 11 11 10 8 8 8 8 8 8 8 8 8 9 11 14 16 16 16 15 12 10
10 11 17 27 36 42 45 47 49 49 50 51 51 51 52 51 50 49 48 47 44 43 45 44 42 41 42 44 45 44 43 40 36 32 30 28 27 26 25 23 23 22 20 18 18 18 17 16 16 16 15 14 15 14 12 11 11 10 10 11 11 11 11 11 11 11 9 8 8 8 7 8 7 7 7 8 9 10 13 15 16 16 15 15 13
13 11 14 23 32 40 45 47 49 50 50 50 50 50 50 50 50 50 49 48 46 45 46 45 42 42 43 44 45 44 43 40 36 32 30 29 27 26 24 23 23 22 20 19 19 18 17 16 16 16 14 14 15 14 12 12 13 11 10 11 11 11 11 11 10 10 8 8 8 8 8 8 7 7 7 7 8 9 11 13 15 16 17 17 16
16 15 14 19 29 38 44 48 49 50 50 49 47 47 48 48 49 50 50 49 47 47 48 46 43 42 43 44 45 44 42 39 36 33 31 30 28 25 22 22 24 23 20 19 18 18 17 17 17 16 14 14 15 14 12 13 13 11 11 12 11 11 10 10 10 9 8 9 9 8 8 8 7 7 7 7 7 8 9 11 13 15 16 17 17
19 21 19 16 26 36 43 48 49 50 50 48 47 47 47 48 49 50 51 50 48 48 48 47 45 43 43 44 44 43 42 39 36 34 32 30 28 25 22 22 24 23 20 19 19 18 17 17 17 16 15 15 15 14 14 14 13 12 12 12 11 10 9 9 8 8 9 9 9 9 8 7 7 7 7 7 7 7 7 9 10 13 15 16 15
25 26 24 17 24 36 42 47 49 49 49 48 48 48 48 48 49 50 51 51 50 50 49 47 46 44 43 43 43 43 41 39 36 34 32 30 27 24 22 23 23 21 20 20 19 18 18 19 18 17 15 15 15 15 15 15 14 13 12 12 11 9 8 8 8 9 9 9 9 8 8 7 7 7 6 6 6 6 7 8 9 10 11 12 11
30 28 25 18 23 37 43 46 48 48 48 48 49 49 49 49 50 50 51 52 51 50 49 48 46 45 44 43 43 42 41 38 36 34 32 29 27 24 23 23 23 21 20 19 18 19 20 19 18 16 15 15 14 14 14 14 14 13 12 12 10 9 8 9 9 9 9 9 8 8 8 7 7 6 5 5 5 6 7 8 9 10 10 10 9
31 30 26 19 23 37 42 44 46 47 47 48 49 49 49 49 50 51 51 53 52 51 49 48 47 45 44 43 42 41 40 38 36 34 31 29 27 24 24 25 24 21 19 17 17 20 21 20 18 16 15 14 13 12 13 13 13 13 12 12 11 10 9 9 10 10 10 9 9 8 8 7 6 5 4 4 5 5 7 8 9 10 10 9 9
29 30 27 20 23 36 41 43 46 47 48 49 50 50 50 49 49 50 51 52 52 51 49 48 47 46 45 44 42 41 39 37 35 32 30 29 26 24 24 25 23 20 17 16 18 20 21 19 17 16 15 14 12 12 12 13 12 12 12 11 11 11 11 11 11 11 11 10 10 9 8 7 6 5 5 5 5 5 6 9 10 10 9 9 8
29 31 28 22 25 35 41 43 46 48 49 50 50 50 50 50 50 50 50 51 52 51 49 48 47 46 45 44 42 39 38 36 33 30 28 26 25 23 22 22 21 19 17 16 18 21 20 18 18 17 15 14 13 13 12 12 12 12 12 11 11 11 12 12 12 12 12 11 11 10 9 8 7 6 6 7 7 6 6 10 11 10 10 8 8
28 31 27 24 29 37 42 44 46 48 48 49 49 49 49 48 48 49 49 51 52 51 49 48 47 46 45 44 40 38 37 34 30 28 26 24 23 21 21 21 21 19 17 17 20 22 20 19 18 17 15 14 14 13 12 11 12 12 12 12 12 12 12 13 13 13 13 12 12 11 10 10 9 8 8 8 8 7 7 10 11 10 10 9 8
29 30 26 26 32 38 43 45 45 47 48 48 48 48 48 47 47 48 48 49 50 49 48 47 46 45 44 42 39 37 35 31 28 27 25 23 22 21 21 21 21 20 17 18 22 22 19 19 18 16 15 14 14 13 12 12 12 12 12 12 12 13 13 13 13 13 13 13 12 11 11 11 10 10 9 9 9 8 8 10 10 10 9 8 7
30 29 24 28 34 38 42 44 45 47 47 48 48 47 48 48 48 48 49 49 49 49 47 47 45 44 43 41 38 36 33 30 28 27 25 23 23 22 21 21 21 20 18 18 22 21 19 18 17 16 15 13 13 13 12 12 13 13 13 12 12 13 13 13 13 13 13 13 12 12 13 12 12 11 10 9 10 10 9 11 11 10 9 8 7
32 27 22 29 37 39 42 42 43 46 46 47 48 47 47 48 48 49 49 49 49 48 47 46 45 44 43 41 38 35 33 30 28 26 24 22 22 24 24 22 21 20 18 19 22 20 18 18 18 17 15 13 12 12 12 13 14 14 14 13 12 12 12 12 12 12 13 13 13 13 13 13 12 11 10 10 11 11 11 12 12 12 11 10 8
34 26 21 30 37 38 41 43 43 45 47 48 48 47 48 49 49 50 49 48 48 48 47 46 44 44 43 41 38 35 32 30 28 25 24 23 23 26 26 22 20 20 18 18 22 21 20 20 19 18 15 13 12 12 13 14 14 14 14 12 12 12 11 11 11 12 13 13 13 13 13 13 12 12 11 11 11 12 13 14 14 14 13 11 9
32 23 21 29 36 37 40 42 43 45 47 47 48 48 49 49 49 49 49 49 49 48 47 45 44 44 43 41 38 35 32 30 28 26 27 26 23 24 24 20 20 22 19 18 21 22 21 20 19 17 15 13 12 12 13 14 15 14 13 12 11 11 11 11 11 11 12 12 13 12 11 11 11 11 11 11 11 13 15 16 16 15 14 12 10
29 21 20 27 35 37 39 41 42 44 44 45 46 47 47 47 47 48 49 49 49 47 46 45 44 43 43 41 39 35 31 29 27 26 29 30 26 23 21 22 24 24 19 18 22 23 22 20 19 17 13 12 11 10 10 12 13 13 12 12 12 12 11 11 11 11 11 12 12 11 10 11 11 12 12 12 13 15 16 16 16 15 14 13 11
24 19 19 26 34 37 39 41 41 42 43 44 45 46 46 46 46 46 47 48 47 46 45 45 43 43 43 41 38 35 32 30 28 26 27 31 30 24 20 23 26 22 18 20 24 24 23 21 18 15 12 11 9 7 5 6 9 11 12 11 12 12 12 12 11 11 12 12 12 11 11 12 12 12 13 14 15 16 16 16 17 16 15 14 12
20 17 18 24 32 36 37 39 40 41 43 44 45 45 45 45 45 46 46 46 45 46 46 45 43 43 42 40 38 36 33 31 30 29 28 29 29 25 22 25 26 20 19 22 25 25 23 20 17 13 11 10 9 5 4 4 6 9 10 11 11 12 12 12 12 12 12 13 13 13 14 14 14 13 14 15 16 17 17 17 17 17 16 16 14
17 15 18 23 30 35 35 37 39 40 42 43 44 44 44 44 45 46 45 45 45 46 45 44 44 43 42 40 37 35 34 33 34 34 31 28 27 26 26 27 24 19 20 24 26 25 23 20 16 12 10 9 9 6 4 4 5 7 8 9 10 11 12 12 13 13 13 14 16 16 15 16 16 15 15 15 17 18 18 18 18 18 18 17 15
13 15 20 25 31 34 34 36 38 39 41 42 42 42 43 45 46 46 45 45 46 46 46 45 44 41 40 38 34 33 36 36 35 34 32 31 31 29 26 25 22 19 20 23 27 26 23 19 16 13 10 10 11 9 6 4 4 5 7 9 10 12 12 13 13 14 15 16 18 18 16 15 16 15 15 16 17 18 18 19 18 19 19 18 15
8 13 20 25 30 33 35 36 38 39 40 40 40 41 43 45 46 45 45 46 47 47 46 44 42 39 38 35 33 34 36 36 35 33 32 34 35 31 24 21 21 20 19 22 27 27 22 18 16 15 13 12 13 13 10 7 6 6 7 9 11 12 13 13 14 16 16 16 17 17 16 16 16 16 16 17 18 18 18 19 19 20 20 17 15
6 12 19 24 28 32 34 35 36 37 39 40 40 41 43 44 44 45 46 47 47 46 44 43 40 37 35 33 33 35 36 35 35 32 29 32 34 30 23 20 20 20 20 24 27 26 21 17 15 14 14 14 14 14 12 10 9 8 9 11 13 13 13 13 14 15 16 15 15 15 15 15 15 16 17 18 18 18 19 19 20 20 19 16 14
8 12 17 21 25 28 29 31 33 34 37 39 40 41 42 42 43 45 46 45 45 44 43 41 38 35 34 35 37 37 34 32 33 31 29 30 33 29 22 21 21 20 21 27 28 25 22 19 15 14 15 14 15 16 14 12 11 10 11 13 14 13 12 13 13 14 15 14 12 12 12 12 13 17 19 18 17 18 18 19 19 18 17 17 16
11 13 15 17 20 23 25 27 30 32 34 37 39 41 41 42 43 44 43 42 42 42 40 38 36 36 38 38 37 35 32 30 31 32 30 31 33 28 23 23 22 20 23 30 29 24 24 23 19 16 15 15 17 18 16 14 12 12 13 15 14 13 13 14 14 14 12 11 10 9 9 10 13 17 19 17 16 16 17 18 17 17 17 18 18
11 12 13 14 16 20 23 24 26 28 31 35 39 41 42 42 42 42 42 41 40 39 37 36 37 37 36 34 32 33 33 31 30 30 31 33 31 26 23 22 20 20 26 30 28 24 25 27 24 19 16 17 19 18 16 14 14 13 14 15 15 14 14 15 15 15 12 10 9 9 9 10 13 18 19 17 15 15 16 16 16 16 17 17 18
5 6 8 9 12 16 18 19 22 26 30 35 38 40 41 41 41 41 42 41 39 37 36 36 35 33 32 33 35 35 33 30 27 30 34 34 29 24 21 20 20 23 27 29 28 26 26 28 27 22 18 18 18 16 16 16 16 15 14 15 16 17 16 16 16 15 13 11 10 10 10 11 14 17 19 18 17 17 17 16 16 17 18 19 19
3 2 3 5 7 9 11 15 19 24 29 34 36 37 38 39 40 42 42 40 38 37 36 34 32 32 34 37 37 34 31 28 26 29 33 32 26 22 20 20 22 26 28 29 28 27 27 29 28 23 20 19 18 17 17 18 17 17 16 15 17 19 19 18 18 17 15 14 14 14 13 13 15 17 20 20 19 18 17 17 17 18 19 20 20
10 8 4 4 5 5 10 16 20 24 28 33 36 36 37 38 41 42 40 37 36 37 35 33 33 37 40 39 37 36 33 31 30 32 34 31 25 22 20 20 24 28 30 30 29 29 29 29 27 24 23 22 20 19 18 17 16 17 16 16 18 19 20 20 19 18 17 18 18 16 15 14 15 18 21 21 19 18 19 19 19 19 19 19 20
12 11 7 5 6 10 15 18 22 26 30 33 36 36 37 39 41 39 35 34 35 36 35 32 33 37 40 40 39 38 36 33 32 34 35 31 25 22 21 19 21 25 28 29 29 29 28 25 24 25 25 23 20 19 17 14 14 13 14 15 16 18 19 20 19 18 18 19 19 18 17 17 18 20 22 21 20 20 21 21 21 21 19 18 19
10 9 7 6 7 12 18 22 26 30 32 34 36 36 37 39 38 34 32 34 36 36 35 34 35 38 40 41 41 40 38 34 33 33 34 29 23 20 18 17 17 20 22 22 22 22 22 21 23 24 22 18 15 13 10 9 9 10 11 12 12 12 14 15 15 17 19 20 21 20 20 20 20 21 22 22 21 20 21 21 22 22 21 19 19
8 3 7 10 11 14 19 25 30 33 35 36 37 37 37 37 34 30 31 35 36 34 33 35 38 40 41 41 40 38 35 33 33 34 34 29 22 18 17 16 17 19 20 20 20 20 20 20 20 19 16 12 10 7 5 7 9 9 10 10 10 10 10 11 13 15 18 20 20 20 20 21 22 22 23 22 22 22 22 21 21 22 22 21 20
6 2 8 14 17 20 24 29 33 35 36 38 39 39 38 36 33 30 32 34 34 31 32 35 36 36 37 36 35 34 34 34 35 35 32 27 24 21 19 19 19 20 20 21 22 22 21 18 15 13 11 10 9 8 8 9 10 11 11 11 11 11 11 12 13 14 17 18 18 18 19 20 21 22 21 21 21 22 22 22 21 21 21 22 22
Wind_Direction
234 230 225 221 219 219 219 221 222 216 213 214 213 211 210 210 211 208 204 202 203 204 202 200 199 198 199 201 202 201 201 202 200 201 201 199 201 202 203 204 205 210 215 217 217 223 232 234 233 231 233 236 232 227 227 230 229 228 229 227 228 216 203 205 195 185 187 179 174 178 178 185 202 225 270 289 73 73 58 51 61 74 90 96 94
232 229 224 222 221 219 217 219 221 218 214 214 214 212 210 211 212 210 207 205 205 205 204 203 201 200 200 201 202 202 203 203 200 200 201 199 203 205 203 204 206 213 220 223 221 224 232 239 240 239 238 234 229 228 228 231 230 227 227 221 223 226 209 197 197 199 201 196 189 184 182 188 199 206 208 184 148 124 117 112 111 115 121 123 121
225 226 225 223 222 219 215 217 221 221 217 214 214 212 211 212 213 212 209 207 206 207 207 206 203 202 204 204 204 204 206 206 203 202 202 202 206 206 204 205 210 216 224 229 228 229 237 244 246 245 241 234 233 237 234 232 229 223 227 224 220 221 209 194 202 213 212 203 195 192 192 191 188 189 188 173 153 141 135 130 127 127 129 127 122
220 223 225 222 219 217 215 216 219 220 218 215 214 213 212 213 213 212 211 209 207 207 209 207 204 204 206 207 207 207 208 208 205 205 205 206 208 207 205 207 214 220 225 231 232 233 240 245 247 248 244 240 239 243 239 233 229 222 222 225 223 221 215 206 208 215 219 214 201 192 190 190 193 190 178 164 150 141 139 139 138 136 132 126 123
218 220 222 219 217 218 217 217 217 217 218 218 217 216 214 213 213 213 212 211 209 209 209 208 206 205 206 206 206 207 208 209 207 206 205 207 210 209 208 211 217 222 226 231 233 233 238 242 244 246 244 243 242 240 238 233 231 228 225 227 229 231 229 221 215 214 219 225 224 212 192 197 210 198 178 163 154 151 151 155 154 148 142 137 146
218 220 223 223 221 219 217 217 216 216 219 220 221 219 216 214 213 214 214 212 212 211 210 209 208 208 207 205 204 204 206 209 209 207 206 207 209 210 211 215 220 224 228 232 232 231 235 238 239 243 244 243 239 232 229 227 228 230 231 233 236 240 240 231 224 222 220 222 228 232 231 236 230 199 183 173 165 165 166 167 165 160 157 159 176
217 218 220 222 220 216 214 216 217 217 219 222 222 221 218 215 213 213 214 214 213 213 212 212 210 210 211 210 208 206 207 210 210 210 210 210 211 212 213 218 222 226 230 233 234 233 236 238 239 241 244 240 231 225 225 227 229 231 234 238 239 240 241 239 236 230 225 226 229 235 242 249 248 224 207 193 179 178 178 177 173 167 167 169 182
217 215 214 216 219 218 216 218 220 221 221 221 221 221 220 216 213 213 214 215 216 215 215 215 214 213 214 215 213 211 212 213 212 211 212 213 214 214 216 220 225 229 232 234 236 237 238 241 242 242 243 237 226 221 225 228 230 233 235 238 240 239 239 243 245 239 237 238 237 238 241 244 248 247 240 230 208 191 181 179 175 171 173 173 185
219 217 214 214 217 219 221 223 224 223 220 220 221 221 220 216 214 212 213 217 218 218 219 219 218 216 217 218 216 214 216 216 215 213 213 215 216 217 220 223 227 232 234 236 238 239 240 242 242 241 240 235 225 219 221 226 230 235 239 241 241 243 243 242 245 246 247 249 247 245 245 241 240 241 239 236 229 207 189 183 179 176 177 174 188
221 219 216 216 218 220 222 223 224 222 219 220 221 220 218 216 213 212 213 217 219 220 221 221 220 219 219 220 218 215 216 217 216 215 216 217 219 220 222 225 229 233 235 237 239 241 241 241 239 238 238 233 226 221 223 228 233 238 243 245 246 247 247 244 245 249 248 248 250 250 248 242 237 235 233 230 228 222 208 194 185 182 184 180 188
222 220 218 219 220 220 220 220 219 217 214 215 217 218 218 216 213 212 213 217 220 222 223 223 223 222 221 222 221 218 217 217 215 215 217 219 220 221 223 226 230 234 236 237 240 241 241 239 235 233 234 232 227 227 231 234 237 242 245 247 247 247 246 245 246 247 245 244 245 245 246 245 243 244 244 241 234 227 219 199 187 186 190 189 192
221 220 219 218 218 218 217 217 216 214 211 212 215 217 217 216 214 212 212 216 220 222 224 224 224 224 222 223 224 222 221 219 217 215 217 219 221 222 223 225 228 231 234 236 238 239 239 238 235 231 233 234 233 235 238 241 244 246 246 248 251 249 245 243 241 241 241 242 241 240 243 245 248 250 249 248 243 237 228 202 189 190 191 189 191
222 219 218 216 215 216 215 214 215 215 213 213 215 216 215 215 214 212 212 215 219 222 224 225 225 225 223 223 224 225 224 223 220 218 219 221 223 224 225 226 227 229 231 234 236 238 239 239 237 234 235 238 240 242 243 246 251 254 253 254 257 254 246 240 238 239 239 240 241 241 242 243 243 240 234 233 230 229 225 207 193 194 196 189 188
226 220 218 216 216 216 214 213 215 216 215 215 216 216 214 214 214 212 212 216 219 222 224 225 226 225 224 224 225 226 226 225 222 220 221 223 224 226 228 230 231 233 234 236 238 239 240 241 238 235 237 239 242 245 247 251 259 264 263 260 258 252 245 242 240 240 238 237 238 238 237 237 234 227 223 221 218 216 219 214 200 190 191 192 191
233 224 219 219 218 216 215 214 215 216 217 217 216 216 215 215 215 212 212 216 219 222 224 225 226 226 225 225 226 227 228 226 222 222 223 224 225 228 230 233 236 237 238 240 240 241 242 241 239 238 240 242 244 247 251 258 265 267 264 256 250 247 245 246 243 239 238 238 237 235 230 226 223 221 220 218 217 218 223 227 218 198 186 188 194
237 228 221 220 220 219 218 217 216 217 217 217 216 216 216 216 216 213 212 216 219 222 225 225 225 226 225 226 227 227 228 226 223 223 224 225 228 231 234 236 238 238 237 239 240 242 243 242 241 241 242 243 246 250 255 262 268 267 260 250 244 250 252 249 244 241 242 239 232 228 222 220 218 218 222 217 215 220 226 232 235 226 206 193 194
242 233 225 222 220 220 220 219 217 216 217 217 217 217 218 218 217 212 212 216 219 222 225 225 225 226 225 226 227 227 227 226 224 224 224 226 230 234 237 239 240 239 239 238 237 239 241 241 241 241 241 242 245 251 257 265 268 262 255 250 247 248 249 248 245 243 242 234 222 215 212 215 216 214 216 215 213 217 224 229 234 239 235 216 204
260 244 234 227 222 221 220 220 218 218 220 220 220 221 221 220 217 212 211 215 218 222 224 224 225 226 225 226 227 227 227 227 227 227 226 227 230 232 235 236 238 241 242 237 234 234 236 237 239 240 239 238 242 249 256 263 263 253 247 247 243 240 240 243 244 241 234 222 210 207 208 213 215 213 213 215 218 218 219 225 230 231 235 239 232
281 257 241 230 225 223 221 220 219 219 221 222 222 220 219 218 216 213 213 215 217 221 223 223 225 226 226 226 226 227 227 227 227 227 227 228 230 232 233 234 235 239 241 236 230 230 230 231 235 236 234 234 240 248 252 253 251 245 240 238 235 236 237 237 237 233 223 209 206 209 213 217 217 216 216 219 225 222 216 220 224 225 228 235 244
300 273 250 235 228 225 223 222 220 219 220 219 218 216 216 216 214 212 213 215 217 221 223 223 224 225 225 225 226 227 227 227 227 227 227 228 231 233 233 233 234 237 238 233 228 228 228 229 231 231 229 231 240 248 248 244 242 241 237 233 231 232 232 230 228 224 213 206 211 215 218 222 220 220 223 225 227 222 217 218 220 222 225 229 235
313 297 265 242 231 226 225 223 221 220 219 217 215 214 214 213 212 211 211 214 217 221 222 222 222 224 224 224 225 226 226 225 226 226 226 229 232 233 233 234 235 236 233 228 226 226 227 227 227 226 225 229 240 249 248 240 239 241 239 235 232 227 225 223 220 217 216 216 219 221 224 224 221 221 223 225 225 221 219 220 220 220 222 227 232
321 323 297 252 232 226 223 221 219 217 216 214 212 212 211 210 211 211 211 213 217 220 222 221 221 222 223 224 225 225 224 224 224 225 225 227 231 232 232 234 234 232 228 224 223 223 223 223 222 221 221 227 238 245 245 242 240 241 239 238 235 225 219 220 219 219 223 225 225 225 227 227 225 225 225 223 221 219 220 222 223 224 225 230 238
325 336 326 274 235 226 222 219 217 215 213 211 210 210 210 210 211 211 211 213 216 220 221 220 220 222 223 224 225 224 224 223 223 224 224 226 229 231 232 235 235 231 226 224 222 220 220 220 218 217 218 224 234 239 242 243 241 237 236 237 234 225 218 221 226 227 228 229 229 229 230 229 227 228 226 224 221 217 220 222 224 228 230 234 242
329 337 335 299 239 225 221 217 214 213 211 210 209 210 211 211 211 211 212 213 215 218 219 218 219 221 222 223 224 224 223 222 222 223 223 225 228 230 232 236 236 233 227 225 222 218 217 217 215 216 218 223 232 239 241 241 237 233 232 232 229 223 221 224 227 230 230 231 233 234 234 231 228 229 226 223 223 222 220 217 216 220 222 224 228
331 333 331 306 243 224 218 215 212 211 209 208 209 209 210 211 211 211 212 212 214 217 218 217 218 219 221 222 223 223 222 221 222 222 222 224 227 231 234 235 235 232 228 226 221 215 214 213 213 215 221 227 234 240 241 237 233 230 228 226 221 218 222 224 223 225 228 230 233 234 235 235 232 233 231 224 225 228 226 217 207 204 205 206 210
331 329 323 300 245 223 216 213 210 209 208 208 208 209 210 211 211 211 211 211 213 216 216 216 216 218 221 222 221 222 221 220 222 222 222 223 227 232 235 236 235 230 226 224 218 212 211 210 210 215 224 230 235 237 236 233 230 228 225 223 218 214 217 221 221 222 224 226 228 229 231 237 240 241 243 240 238 243 236 217 203 201 204 208 213
330 326 315 291 243 221 215 212 209 208 207 207 208 208 208 209 210 209 209 209 211 214 215 215 216 218 220 221 221 221 220 220 221 221 223 223 226 232 237 239 236 229 229 229 217 209 208 207 210 218 225 229 231 231 231 230 228 225 225 225 221 217 217 218 221 222 222 222 224 227 230 237 243 246 252 254 254 256 237 211 200 201 208 213 215
329 323 309 281 242 221 214 211 208 206 206 207 208 208 208 208 209 207 207 208 210 212 213 214 215 217 220 221 221 220 219 219 219 220 223 225 227 232 236 239 234 226 234 237 217 205 205 206 211 220 226 229 228 228 229 231 230 226 226 225 223 223 220 220 222 221 221 222 223 226 231 234 240 244 251 256 254 249 229 210 204 204 209 216 219
323 318 303 267 238 221 213 210 207 205 205 205 206 207 207 207 208 206 205 206 208 210 212 213 214 216 219 220 220 219 217 216 217 218 220 224 228 230 232 234 225 222 235 232 210 202 204 208 214 222 227 227 225 226 228 231 233 230 228 226 223 225 224 223 225 223 222 223 224 228 232 234 238 241 247 252 246 236 221 212 214 218 219 222 225
312 312 293 252 230 220 213 209 206 204 204 204 205 205 206 206 206 206 204 204 207 208 210 212 213 215 217 218 218 217 214 212 214 217 218 221 227 229 231 228 218 222 237 222 201 200 204 208 217 225 228 228 225 226 228 231 233 231 228 228 225 225 225 224 226 227 227 226 227 230 233 236 238 237 241 247 243 233 219 209 213 226 232 232 236
299 304 283 241 223 217 212 208 205 204 203 203 204 204 205 204 204 204 203 204 206 208 210 211 212 213 214 215 216 214 210 210 214 215 215 219 225 227 228 224 217 228 239 214 197 200 203 207 220 227 228 229 228 228 230 231 231 228 225 225 225 226 227 226 227 230 231 232 233 233 234 236 236 233 237 243 238 231 222 211 210 218 226 230 237
290 296 274 233 218 212 210 207 205 204 203 203 203 203 203 203 203 203 203 203 205 207 210 210 210 211 211 213 214 210 208 211 214 212 212 217 223 225 223 219 218 232 238 211 195 200 204 209 222 228 228 230 230 231 233 231 230 227 222 221 222 224 228 229 230 231 232 234 237 238 239 237 232 229 233 237 234 230 225 219 216 218 222 227 233
285 287 266 230 216 210 208 206 204 204 204 204 203 202 202 202 202 202 201 202 204 207 209 208 208 210 212 213 213 208 207 212 212 210 213 216 220 222 219 216 218 231 236 212 195 198 205 210 222 230 232 234 232 230 232 230 228 225 220 219 220 222 226 230 233 236 236 236 238 240 242 238 232 231 233 234 237 236 229 222 221 221 224 229 233
279 275 256 230 215 208 207 207 206 205 205 205 204 203 204 202 201 200 200 202 204 205 206 206 207 210 211 213 213 209 210 212 211 212 214 213 216 219 218 218 222 229 232 213 197 199 205 212 223 230 234 237 233 229 229 228 225 223 220 220 221 222 225 228 233 238 239 240 240 240 242 240 236 237 238 239 243 240 230 224 224 224 226 230 233
276 262 244 227 213 207 206 206 206 206 205 205 205 204 204 203 200 199 200 202 202 203 204 205 206 209 210 213 213 210 210 212 211 214 215 212 211 214 216 220 220 224 230 215 200 201 205 212 222 228 232 233 225 221 224 223 222 221 221 221 221 222 225 227 231 235 237 239 238 235 235 235 233 236 239 240 243 241 231 226 227 227 228 231 234
277 254 236 223 212 207 206 205 205 206 205 204 205 204 203 202 201 200 200 201 201 201 202 204 206 208 209 212 212 209 211 212 210 213 216 214 210 206 214 221 216 219 228 215 202 202 207 212 219 223 226 220 203 198 217 224 223 222 221 221 221 222 225 228 229 232 234 236 236 235 233 230 229 236 242 241 241 239 231 226 229 231 231 233 236
277 248 231 220 212 208 206 205 205 205 205 205 205 204 201 200 201 201 200 200 199 200 202 205 208 208 209 211 211 210 211 211 211 211 211 213 213 211 219 221 213 219 231 213 200 203 208 211 215 215 214 204 189 192 241 249 235 228 225 224 223 222 226 228 228 231 233 235 238 237 233 228 226 232 238 238 237 235 229 226 230 233 234 237 238
272 231 213 210 209 207 206 205 206 206 207 207 205 203 200 199 201 201 199 198 199 201 203 206 208 208 209 210 209 212 213 212 214 212 208 211 216 217 220 218 214 228 235 211 197 202 206 207 210 209 205 200 194 201 235 247 242 238 236 231 226 226 228 227 226 227 230 234 238 237 233 230 229 231 235 235 233 232 230 229 231 234 237 240 241
263 215 204 206 206 205 205 205 206 206 207 207 204 202 201 201 201 200 198 198 200 202 205 207 207 206 208 208 209 214 217 215 214 212 211 215 215 210 213 217 219 234 234 209 198 202 203 202 206 205 201 207 209 209 217 232 237 243 245 238 231 229 227 225 225 225 227 235 239 238 235 234 232 233 234 232 229 230 233 234 234 238 241 244 246
248 205 204 205 202 202 204 204 205 207 207 206 204 202 202 202 200 198 199 201 203 205 206 207 206 207 208 210 212 215 216 216 213 210 215 221 213 203 207 217 221 228 226 208 199 199 199 202 208 207 204 211 216 215 217 225 228 237 248 244 237 233 230 228 228 228 232 241 242 238 235 234 233 234 232 229 227 230 236 238 239 242 246 250 251
226 195 198 202 202 203 206 206 206 206 205 204 204 203 202 201 200 200 201 203 204 205 205 206 207 208 208 210 214 213 214 216 213 211 221 223 208 201 210 222 222 224 218 203 197 198 201 205 208 208 206 211 219 220 220 223 225 233 245 244 240 239 237 234 234 233 239 248 249 244 240 237 235 234 232 228 227 230 236 240 242 247 252 254 250
200 185 188 195 199 203 206 206 205 203 203 204 204 204 202 201 201 202 202 202 203 203 205 206 207 208 209 213 213 210 211 215 214 216 223 215 201 200 214 223 224 224 214 200 196 198 203 205 206 209 210 215 224 225 222 224 228 235 245 245 243 242 240 239 240 239 242 249 252 251 247 243 238 236 234 232 231 232 236 240 244 249 251 248 242
182 180 180 183 191 198 200 202 203 203 205 206 205 204 203 202 202 202 201 201 202 203 204 206 208 210 211 211 209 207 209 213 217 221 218 205 197 201 212 219 223 222 208 198 196 200 205 206 210 214 215 221 229 228 224 228 234 239 243 244 244 244 240 239 243 246 249 255 255 250 247 246 242 237 234 233 233 234 237 241 245 247 247 243 239
179 182 181 178 187 193 195 201 206 206 208 208 206 204 204 202 202 201 200 201 202 203 205 207 208 209 207 207 210 214 212 211 217 221 212 201 200 205 210 216 218 209 198 194 196 202 207 210 215 218 219 226 230 229 229 235 240 243 243 242 242 242 241 241 244 248 253 254 253 251 251 250 243 237 235 234 235 236 241 246 248 247 244 241 238
186 184 182 180 188 192 194 200 203 204 209 210 206 201 200 200 201 202 203 202 201 201 203 204 204 205 208 214 218 216 210 209 216 216 204 197 201 207 208 210 205 196 193 195 198 204 209 213 217 219 224 230 231 232 235 239 241 243 243 241 240 241 242 243 244 247 250 250 252 255 256 254 245 237 234 234 235 239 246 253 253 246 240 238 239
314 305 225 204 195 198 207 207 205 207 210 209 206 202 200 202 205 206 205 202 200 200 202 203 205 208 212 216 212 204 202 207 211 207 199 198 203 208 208 206 201 194 194 198 202 206 212 217 218 220 227 231 231 233 237 237 238 239 239 238 237 237 240 241 242 244 246 248 251 251 250 249 241 231 229 233 236 240 248 254 251 243 238 238 240
349 349 314 248 233 241 233 217 213 216 214 209 208 208 207 208 208 206 205 204 202 203 203 203 206 209 210 210 203 197 199 205 203 199 198 200 206 209 208 207 202 196 196 201 206 211 217 220 220 223 229 232 231 233 236 238 239 239 240 240 238 236 237 239 240 242 243 245 248 251 251 248 239 230 228 232 236 242 248 250 246 240 239 241 243
354 349 332 285 254 252 243 229 224 224 220 215 212 210 208 209 206 205 209 210 208 204 201 201 206 208 206 205 202 199 200 202 200 199 198 200 204 207 208 210 208 201 199 203 208 214 219 220 220 225 231 235 236 238 240 242 243 241 241 242 240 239 240 242 244 246 246 247 250 252 253 251 245 238 234 232 234 243 248 246 241 238 241 244 244
358 339 315 292 262 248 245 238 231 226 220 216 213 209 207 207 206 209 216 216 210 204 201 201 203 205 204 205 204 203 201 199 197 197 199 201 201 201 204 211 210 206 206 208 209 210 211 213 220 228 234 238 242 243 241 241 242 240 240 241 241 243 245 247 249 251 251 252 253 253 252 251 248 246 241 235 235 243 248 245 240 238 242 245 245
4 311 242 244 247 247 240 230 223 219 214 211 208 206 205 207 207 210 215 214 208 202 202 204 204 205 206 204 200 198 197 195 194 194 196 198 198 198 204 207 203 202 206 208 208 207 208 215 226 231 234 238 241 235 217 214 220 225 231 235 237 241 244 246 248 250 251 253 255 255 254 252 250 250 246 240 238 243 248 249 246 244 245 246 246
353 272 219 220 225 231 229 220 214 211 209 207 205 204 205 207 205 203 206 210 206 200 201 206 206 205 203 198 193 193 194 193 194 196 195 193 191 193 198 201 200 201 201 203 208 215 221 227 230 228 228 230 225 213 208 211 215 218 222 227 229 231 236 241 245 247 250 252 253 254 255 255 254 253 249 244 241 244 248 251 252 251 249 248 248